This demonstration page uses our WeatherBlox Daily Observations layout. Learn more.

Left ArrowRight Arrow

Hourly Observations for June 29, 2020

Temp ( °F °C ) Dew Point ( °F °C ) Humidity (%) Winds ( mph kmh ) Pressure ( in mb ) Visibility ( mi km ) Precip ( " mm )
12:53 am 00:53 Clear 80 26.7 55 12.8 42 42 ESE 8 13 29.60 1002 10 16 0.00 0.00
1:53 am 01:53 Clear 81 27.2 58 14.4 45 45 SSE 12 19 29.59 1002 10 16 0.00 0.00
2:53 am 02:53 Clear 77 25 56 13.3 48 48 SE 9 15 29.58 1002 10 16 0.00 0.00
3:53 am 03:53 Clear 75 23.9 59 15 58 58 SE 10 17 29.58 1002 10 16 0.00 0.00
4:53 am 04:53 Clear 73 22.8 60 15.6 64 64 SSE 7 11 29.60 1002 10 16 0.00 0.00
5:53 am 05:53 Clear 72 22.2 60 15.6 66 66 S 8 13 29.61 1003 10 16 0.00 0.00
6:53 am 06:53 Sunny 72 22.2 59 15 64 64 S 8 13 29.63 1004 10 16 0.00 0.00
7:53 am 07:53 Sunny 75 23.9 53 11.7 46 46 SSW 6 9 29.65 1004 10 16 0.00 0.00
8:53 am 08:53 Sunny 83 28.3 50 10 32 32 WSW 10 17 29.66 1005 10 16 0.00 0.00
9:53 am 09:53 Sunny 89 31.7 54 12.2 30 30 W 23 37 29.66 1005 10 16 0.00 0.00
10:53 am 10:53 Sunny 92 33.3 54 12.2 28 28 W 24 39 29.65 1004 10 16 0.00 0.00
11:53 am 11:53 Sunny 95 35 46 7.8 19 19 W 24 39 29.65 1004 10 16 0.00 0.00
12:53 pm 12:53 Sunny 97 36.1 47 8.3 18 18 WSW 17 28 29.65 1004 10 16 0.00 0.00
1:53 pm 13:53 Sunny 98 36.7 46 7.8 17 17 WSW 21 33 29.63 1003 10 16 0.00 0.00
2:53 pm 14:53 Sunny 99 37.2 46 7.8 16 16 WSW 18 30 29.62 1003 10 16 0.00 0.00
3:53 pm 15:53 Sunny 102 38.9 44 6.7 14 14 W 22 35 29.60 1002 10 16 0.00 0.00
4:53 pm 16:53 Sunny 101 38.3 44 6.7 14 14 WSW 21 33 29.59 1002 10 16 0.00 0.00
5:53 pm 17:53 Sunny 101 38.3 43 6.1 14 14 W 20 31 29.57 1002 10 16 0.00 0.00
6:53 pm 18:53 Sunny 100 37.8 43 6.1 14 14 W 18 30 29.56 1001 10 16 0.00 0.00
7:53 pm 19:53 Sunny 99 37.2 42 5.6 14 14 W 17 28 29.56 1001 10 16 0.00 0.00
8:53 pm 20:53 Sunny 95 35 43 6.1 17 17 W 9 15 29.57 1001 10 16 0.00 0.00
9:53 pm 21:53 Clear 87 30.6 44 6.7 22 22 W 8 13 29.59 1002 10 16 0.00 0.00
10:53 pm 22:53 Clear 87 30.6 64 17.8 46 46 SE 15 24 29.62 1003 10 16 0.00 0.00
11:53 pm 23:53 Clear 85 29.4 64 17.8 50 50 SSE 14 22 29.63 1004 10 16 0.00 0.00

Powered by AerisWeather